Satellite-Ground Cal/Val Site Overpasses Predictions

Prediction of Satellite NPP Overpassing Cal/Val Site: Antarctic Dome C

Ground Cal/Val Site Location: Latitude: -75.10, Longitude: 123.35; Satellite-Ground Site NADIR distance within 100 km.

Table of predicted overpasses for the next 14.0 days since TLE Epoch: 7/27/2024
Interval Starting Time Ending Time Minimum Distance Time Minimum Distance (km)
1 07/27/2024 14:55:18 07/27/2024 14:55:46 07/27/2024 14:55:32 23.73
2 07/28/2024 14:36:35 07/28/2024 14:36:51 07/28/2024 14:36:43 83.36
3 07/29/2024 07:38:09 07/29/2024 07:38:36 07/29/2024 07:38:23 39.84
4 07/30/2024 07:19:24 07/30/2024 07:19:44 07/30/2024 07:19:34 69.98
5 08/01/2024 15:01:41 08/01/2024 15:02:04 08/01/2024 15:01:53 61.35
6 08/02/2024 14:42:50 08/02/2024 14:43:16 08/02/2024 14:43:03 47.95
7 08/03/2024 07:44:33 08/03/2024 07:44:52 08/03/2024 07:44:43 75.35
8 08/04/2024 07:25:40 08/04/2024 07:26:08 08/04/2024 07:25:54 32.27
9 08/06/2024 15:08:11 08/06/2024 15:08:13 08/06/2024 15:08:12 99.57
10 08/07/2024 14:49:09 08/07/2024 14:49:38 08/07/2024 14:49:23 11.81
